www.pogodaiklimat.ru

Погода и климат >> Архив погоды >> Южная Африка >> Punda Maria


ПОГОДА в Punda Maria

  • Прогноз погоды в Punda Maria
  • Монитор погоды в Punda Maria

АРХИВ ПОГОДЫ в Punda Maria

Время (UTC), дата Ветер
(напр.,м/с)
 
Видим.   Явления Облачность Т
(С)
Тd
(С)
f
(%)
Тe
(С)
Тes
(С)
Комфортность P
(гПа)
Po
(гПа)
Тmin
(С)
Tmax
(С)
R
(мм)
R24
(мм)
S
(см)
09 12.03 В 2 н/о н/о +27.5 +17.8 55 +32 +32 очень
душно
965.2 +21.6 +27.5
12 12.03 ЮВ 2 н/о н/о +28.7 +17.7 51 +33 +33 очень
душно
963.1 +21.6 +29.0
15 12.03 ЮВ 2 н/о н/о +29.0 +17.7 51 +33 +33 очень
душно
962.4 +28.5 +30.1
18 12.03 Ю 1 н/о н/о +26.4 +17.9 60 +31 +31 душно 963.3 +26.3 +30.1
21 12.03 ЮВ 2 н/о н/о +24.2 +18.4 70 +29 +29 душно 964.1 +24.2 +30.1
00 13.03 ЮВ 2 н/о н/о +23.7 +19.0 75 +28 +28 душно 963.9 +23.6 +30.1
03 13.03 ЮВ 1 н/о н/о +21.5 +18.3 82 +26 +26 душно 964.1 +21.5 +30.1
06 13.03 Ю 1 н/о н/о +22.9 +19.1 79 +29 +29 очень
душно
965.7 +21.3
09 13.03 Ю 2 н/о н/о +27.7 +18.0 56 +32 +32 очень
душно
965.5 +21.3 +27.7
12 13.03 ЮВ 2 н/о н/о +31.6 +17.0 42 +35 +35 очень
душно
962.6 +21.3 +31.6
15 13.03 ЮВ 2 н/о н/о +29.7 +16.4 45 +33 +33 душно 961.3 +29.7 +32.1
06 14.03 Ю 2 н/о н/о +22.7 +17.4 72 +28 +28 душно 964.8 +21.3
09 14.03 Ю 2 н/о н/о +27.5 +17.2 53 +31 +31 душно 964.4 +21.3 +27.9
12 14.03 ЮВ 2 н/о н/о +30.0 +16.6 44 +33 +33 душно 962.2 +21.3 +30.0
15 14.03 ЮВ 3 н/о н/о +29.0 +17.4 50 +33 +33 очень
душно
961.8 +29.0 +31.2
18 14.03 Ю 2 н/о н/о +25.8 +18.3 63 +30 +30 душно 963.7 +25.8 +31.2
21 14.03 ЮВ 2 н/о н/о +24.3 +18.5 70 +29 +29 душно 963.9 +24.2 +31.2
00 15.03 ЮВ 2 н/о н/о +23.0 +18.6 76 +29 +29 очень
душно
963.7 +23.0 +31.2
03 15.03 Ю 2 н/о н/о +22.2 +19.4 84 +28 +28 душно 963.4 +22.1 +31.2
06 15.03 Ю 2 н/о н/о +22.7 +19.5 82 +29 +29 очень
душно
964.5 +21.5 0.2
09 15.03 ЮВ 3 н/о н/о +27.5 +18.6 58 +32 +32 очень
душно
964.1 +21.5 +27.7
12 15.03 ЮВ 3 н/о н/о +31.4 +17.9 45 +36 +36 очень
душно
961.7 +21.5 +31.4 0.2
21 15.03 ЮВ 2 н/о н/о +23.5 +20.5 83 +29 +29 душно 964.1 +23.0 +31.7
00 16.03 ЮВ 3 н/о н/о +23.2 +17.7 71 +29 +29 душно 963.2 +23.0 +31.7 0.2
03 16.03 ЮВ 2 н/о н/о +21.8 +18.4 81 +27 +27 душно 963.4 +21.8 +31.7
06 16.03 ЮВ 2 н/о н/о +22.1 +18.3 79 +27 +27 душно 964.9 +21.4 0.2
09 16.03 ЮВ 3 н/о н/о +26.3 +16.7 56 +30 +30 душно 964.5 +21.4 +26.3
12 16.03 ЮВ 3 н/о н/о +28.5 +14.2 42 +31 +31 душно 961.6 +21.4 +28.5 0.2
15 16.03 В 2 н/о н/о +28.0 +14.5 44 +30 +30 жарко 960.5 +27.9 +29.8
18 16.03 штиль 0 н/о н/о +23.6 +14.7 57 +26 +26 жарко 961.7 +23.6 +29.8 0.2
21 16.03 штиль 0 н/о н/о +22.2 +16.1 68 +26 +26 душно 961.7 +21.9 +29.8
06 17.03 ЮВ 2 н/о н/о +21.9 +19.8 88 +28 +28 душно 963.1 +21.1 0.2
09 17.03 Ю 2 н/о н/о +27.0 +19.2 62 +32 +32 очень
душно
961.8 +21.1 +27.0
12 17.03 ЮВ 2 н/о н/о +30.9 +18.5 48 +36 +36 очень
душно
958.1 +21.1 +30.9 0.2
15 17.03 ЮВ 2 н/о н/о +29.8 +17.8 49 +34 +34 очень
душно
957.3 +29.8 +31.5
18 17.03 штиль 0 н/о н/о +24.4 +18.6 70 +29 +29 душно 959.2 +24.4 +31.5 0.2
03 18.03 З 1 н/о н/о +21.3 +18.7 85 +26 +26 душно 958.8 +19.8 +31.5
06 18.03 штиль 0 н/о н/о +22.9 +19.1 79 +29 +29 очень
душно
960.7 +19.8 0.2
09 18.03 ЮВ 1 н/о н/о +27.5 +18.9 59 +33 +33 очень
душно
959.6 +19.8 +28.1
12 18.03 ЮВ 1 н/о н/о +32.6 +17.9 42 +37 +37 очень
душно
957.1 +19.8 +32.8
15 18.03 В 1 н/о н/о +32.4 +17.3 41 +36 +36 очень
душно
956.0 +32.3 +33.9
18 18.03 В 1 н/о н/о +27.3 +18.7 59 +32 +32 очень
душно
958.0 +27.3 +33.9
21 18.03 штиль 0 н/о н/о +23.6 +18.7 74 +28 +28 душно 959.9 +23.6 +33.9
00 19.03 штиль 0 н/о н/о +22.2 +19.2 83 +28 +28 душно 959.5 +22.1 +33.9
03 19.03 штиль 0 н/о н/о +21.8 +19.7 88 +27 +27 душно 960.1 +21.1 +33.9
06 19.03 ЮВ 1 н/о н/о +22.6 +20.1 86 +29 +29 очень
душно
961.8 +21.1

 

Местоположение метеостанции Punda Maria (Южная Африка): широта -22.68 долгота 31.02 высота над уровнем моря 457 м.

В архиве по умолчанию представлена погода в Punda Maria за последнюю неделю. Архивные данные за месяц целиком и за предыдущие месяцы, начиная с января 2011 года, Вы можете получить, выбрав интересующий диапазон дат из раскрывающегося списка и нажав кнопку "Ввод!".


*Определитесь, кто Вы:
робот инопланетянин человек

Внимание! Время в таблицах - всемирное. Для получения местного времени необходимо прибавить поправку, которая равна 2 ч.

Смотрите также архив погоды в соседних городах и на ближайших метеорологических станциях:

Погода в Тхохояндоу (Южная Африка) (62 км)
Погода в Тхохояндоу (Южная Африка) (78 км)
Погода в Левубу (Южная Африка) (88 км)
Погода в Байтбридже (Зимбабве) (117 км)
Погода в Пхалаборве (Южная Африка) (141 км)
Погода в Тзанеен-Греншоек (Южная Африка) (154 км)
Погода в Тзанеене (Южная Африка) (156 км)
Погода в Маре (Южная Африка) (157 км)
Погода в Ньоняне (Свазиленд) (179 км)
Погода в Вувулане (Свазиленд) (183 км)

Пояснения к столбцам:

Ветер - указаны скорость ветра в м/с - средняя за 10 мин, порывы в срок и между сроками (в фигурных скобках) и направление, откуда дует ветер: С - северный, СВ - северо-восточный, В - восточный, ЮВ - юго-восточный, Ю - южный, ЮЗ - юго-западный, З - западный, СЗ - северо-западный.
Видимость - горизонтальная дальность видимости в метрах или километрах. При видимости от 1 до 10 км при отсутствии осадков обычно наблюдается дымка, при ухудшении видимости до 1 км и менее - туман. В сухую погоду видимость может ухудшаться дымом, пылью или мглою.
Явления - указаны атмосферные явления, наблюдавшиеся в срок или в последний час перед сроком; фигурными скобками обозначены явления, наблюдавшиеся между сроками (за 1-3 часа до срока); квадратными скобками обозначены град или гололедные отложения с указанием их диаметра в мм.
Облачность - указаны через наклонную черту общая и нижняя облачность в баллах и высота нижней границы облаков в метрах; квадратными скобками обозначены формы облаков: Ci - перистые, Cs - перисто-слоистые, Cc - перисто-кучевые, Ac - высококучевые, As - высокослоистые, Sc - слоисто-кучевые, Ns - слоисто-дождевые, Cu - кучевые, Cb - кучево-дождевые. Подробнее классификацию облаков см. в Атласе облаков (PDF).
T - Температура воздуха - температура, измеренная на высоте 2 м над землей.
Td - Температура точки росы - температура, при понижении до которой содержащийся в воздухе водяной пар достигнет насыщения.
f - Относительная влажность воздуха - влажноcть воздуха, измеренная на высоте 2 м над землей.
Te - Эффективная температура - температура, которую ощущает одетый по сезону человек в тени. Характеристика душности погоды. При расчете учитывается влияние влажности воздуха и скорости ветра на теплоощущения человека.
Tes - Эффективная температура на солнце - температура, которую ощущает человек, с поправкой на солнечный нагрев. Характеристика знойности погоды. Зависит от высоты солнца над горизонтом, облачности и скорости ветра. Ночью, в пасмурную погоду, а также при ветре 12 м/с и более поправка равна нулю.
P - Атмосферное давление - приведенное к уровню моря атмосферное давление.
Po - Атмосферное давление - измеренное на уровне метеостанции атмосферное давление.
Tmin - Минимальная температура - минимум температуры воздуха на высоте 2 м над землей.
Tmax - Максимальная температура - максимум температуры воздуха на высоте 2 м над землей.
R - Количество осадков - Количество выпавших осадков за период времени, мм. При наведении курсора мыши на число - период времени, за который выпало указанное количество осадков.
R24 - Количество осадков - Количество выпавших осадков за 24 часа, мм.
S - Снежный покров - Высота снежного покрова, см. При наведении курсора мыши на число - состояние снежного покрова и степень покрытия местности в баллах.